Bookmark and Share
Track history (hours):
 

Delta Lindsey

More information available from US FCC via Universal Licensing System and Coast Guard Vessel Documentation Center.

Last reported at 2014-Apr-17 03:09 UTC. Time now 2014-Apr-17 06:50 UTC.
Position N 33°44' W 118°17'.

MMSI: 233246442.

NotesDate/timePositionNaut miles runAvg speedWind from/ knotsBaromVisibWave heightAir tempDewpointWater temp
2014-Apr-17 03:09N 33°44' W 118°17'0 0.0
2014-Apr-17 02:31N 33°44' W 118°17'1 0.3
2014-Apr-16 23:32N 33°45' W 118°16'1 0.6
2014-Apr-16 22:26N 33°44' W 118°17'0 0.0
2014-Apr-16 12:15N 33°44' W 118°17'0 0.0
2014-Apr-16 10:21N 33°44' W 118°17'0 0.0
2014-Apr-16 08:18N 33°44' W 118°17'0 0.0
2014-Apr-16 07:33N 33°44' W 118°17'0 0.0
2014-Apr-16 06:28N 33°44' W 118°17'0 0.0
2014-Apr-16 05:32N 33°44' W 118°17'0 0.0
2014-Apr-16 04:33N 33°44' W 118°17'0 0.0
2014-Apr-16 03:32N 33°44' W 118°17'0 0.0
2014-Apr-16 02:33N 33°44' W 118°17'0 0.0
2014-Apr-16 01:33N 33°44' W 118°17'0 0.0
2014-Apr-16 00:33N 33°44' W 118°17'0 0.0
2014-Apr-15 23:33N 33°44' W 118°17'3 3.1
2014-Apr-15 22:34N 33°45' W 118°13'1 1.0
2014-Apr-15 21:33N 33°46' W 118°13'3 3.2
2014-Apr-15 20:33N 33°44' W 118°11'5 3.7
2014-Apr-15 19:20N 33°43' W 118°16'0 0.5
2014-Apr-15 18:33N 33°44' W 118°17'0 0.0
2014-Apr-15 16:33N 33°44' W 118°17'0 0.0
2014-Apr-15 15:19N 33°44' W 118°17'0 0.0
2014-Apr-15 10:34N 33°44' W 118°17'0 0.0
2014-Apr-15 09:34N 33°44' W 118°17'0 0.0
2014-Apr-15 08:34N 33°44' W 118°17'0 0.0
2014-Apr-15 07:34N 33°44' W 118°17'0 0.0
2014-Apr-15 06:34N 33°44' W 118°17'0 0.0
2014-Apr-15 05:34N 33°44' W 118°17'0 0.0
2014-Apr-15 03:34N 33°44' W 118°17'0 0.0
2014-Apr-15 00:34N 33°44' W 118°17'0 0.0
2014-Apr-14 23:34N 33°44' W 118°17'0 0.0
2014-Apr-14 22:34N 33°44' W 118°17'0 0.0
2014-Apr-14 21:34N 33°44' W 118°17'0 0.0
2014-Apr-14 20:34N 33°44' W 118°17'0 0.0
2014-Apr-14 19:34N 33°44' W 118°17'0 0.0
2014-Apr-14 18:34N 33°44' W 118°17'0 0.0
2014-Apr-14 15:33N 33°44' W 118°17'  
2014-Apr-12 01:32N 33°43' W 118°17'0 0.0
2014-Apr-12 00:33N 33°43' W 118°17'0 0.3
2014-Apr-11 23:33N 33°44' W 118°17'0 0.1
2014-Apr-11 22:33N 33°44' W 118°17'0 0.0
2014-Apr-11 21:33N 33°44' W 118°17'3 3.2
2014-Apr-11 20:33N 33°45' W 118°13'1 1.3
2014-Apr-11 19:33N 33°46' W 118°13'0 0.5
2014-Apr-11 18:33N 33°46' W 118°13'2 2.2
2014-Apr-11 17:32N 33°44' W 118°13'3 2.9
2014-Apr-11 16:33N 33°44' W 118°17'0 0.5
2014-Apr-11 15:33N 33°43' W 118°16'0 0.1
2014-Apr-11 13:27N 33°43' W 118°17'0 0.0
2014-Apr-11 11:33N 33°43' W 118°17'0 0.0
2014-Apr-11 10:33N 33°43' W 118°17'0 0.0
2014-Apr-11 09:33N 33°43' W 118°16'0 0.0
2014-Apr-11 07:19N 33°43' W 118°17'0 0.1
2014-Apr-11 06:31N 33°43' W 118°16'0 0.0
2014-Apr-11 05:26N 33°43' W 118°17'0 0.0
2014-Apr-11 04:32N 33°43' W 118°17'0 0.4
2014-Apr-11 03:33N 33°44' W 118°17'0 0.0
2014-Apr-11 02:33N 33°44' W 118°17'0 0.0
2014-Apr-11 01:33N 33°44' W 118°17'0 0.0
2014-Apr-11 00:33N 33°44' W 118°17'0 0.0
2014-Apr-10 23:33N 33°44' W 118°17'0 0.0
2014-Apr-10 22:33N 33°44' W 118°17'0 0.0
2014-Apr-10 21:33N 33°44' W 118°17'0 0.0
2014-Apr-10 20:33N 33°44' W 118°17'0 0.0
2014-Apr-10 19:33N 33°44' W 118°17'0 0.0
2014-Apr-10 18:31N 33°44' W 118°17'0 0.0
2014-Apr-10 17:33N 33°44' W 118°17'0 0.0
2014-Apr-10 16:32N 33°44' W 118°17'0 0.0
2014-Apr-10 15:33N 33°44' W 118°17'0 0.0
2014-Apr-10 14:33N 33°44' W 118°17'0 0.3
2014-Apr-10 13:33N 33°44' W 118°16'2 1.6
2014-Apr-10 12:33N 33°45' W 118°16'0 0.4
2014-Apr-10 11:33N 33°45' W 118°16'2 1.6
2014-Apr-10 10:33N 33°44' W 118°17'0 0.0
2014-Apr-10 09:31N 33°44' W 118°17'0 0.0
2014-Apr-10 08:33N 33°44' W 118°17'0 0.0
2014-Apr-10 07:33N 33°44' W 118°17'0 0.1
2014-Apr-10 06:33N 33°44' W 118°17'0 0.0
2014-Apr-10 05:32N 33°44' W 118°17'0 0.0
2014-Apr-10 04:33N 33°44' W 118°17'0 0.0
2014-Apr-10 03:33N 33°44' W 118°17'0 0.0
2014-Apr-10 02:33N 33°44' W 118°17'0 0.0
2014-Apr-10 01:33N 33°44' W 118°17'0 0.0
2014-Apr-10 00:31N 33°44' W 118°17'0 0.1
2014-Apr-09 23:32N 33°44' W 118°17'0 0.0
2014-Apr-09 22:24N 33°44' W 118°17'0 0.0
2014-Apr-09 19:33N 33°44' W 118°17'0 0.0
2014-Apr-09 18:32N 33°44' W 118°17'0 0.0
2014-Apr-09 17:33N 33°44' W 118°17'0 0.0
2014-Apr-09 16:33N 33°44' W 118°17'0 0.0
2014-Apr-09 15:33N 33°44' W 118°17'3 2.5
2014-Apr-09 14:33N 33°43' W 118°14'2 2.5
2014-Apr-09 13:33N 33°44' W 118°11'0 0.0
2014-Apr-09 12:33N 33°44' W 118°11'2 2.3
2014-Apr-09 11:33N 33°43' W 118°13'3 2.5
2014-Apr-09 10:31N 33°44' W 118°17'0 0.0
2014-Apr-09 09:31N 33°44' W 118°17'0 0.0
2014-Apr-09 08:29N 33°44' W 118°17'0 0.0
2014-Apr-09 07:29N 33°44' W 118°17'0 0.0
2014-Apr-09 06:32N 33°44' W 118°17'0 0.0
2014-Apr-09 05:29N 33°44' W 118°17'0 0.0
2014-Apr-09 04:33N 33°44' W 118°17'0 0.0
2014-Apr-09 03:28N 33°44' W 118°17'0 0.0
2014-Apr-09 02:33N 33°44' W 118°17'0 0.0
2014-Apr-09 01:30N 33°44' W 118°17'0 0.0
2014-Apr-09 00:31N 33°44' W 118°17'4 0.6
2014-Apr-08 18:33N 33°44' W 118°12'4 3.7
2014-Apr-08 17:33N 33°44' W 118°17'0 0.0
2014-Apr-08 16:24N 33°44' W 118°17'0 0.0
2014-Apr-08 15:32N 33°44' W 118°17'0 0.0
2014-Apr-08 14:30N 33°44' W 118°17'0 0.0
2014-Apr-08 13:30N 33°44' W 118°17'0 0.0
2014-Apr-08 12:15N 33°44' W 118°17'0 0.0
2014-Apr-08 11:32N 33°44' W 118°17'0 0.0
2014-Apr-08 10:33N 33°44' W 118°17'0 0.0
2014-Apr-08 09:33N 33°44' W 118°17'0 0.0
2014-Apr-08 08:33N 33°44' W 118°17'0 0.0
2014-Apr-08 07:33N 33°44' W 118°17'0 0.0
2014-Apr-08 01:32N 33°44' W 118°17'0 0.0
2014-Apr-07 22:32N 33°44' W 118°17'0 0.0
2014-Apr-07 21:32N 33°44' W 118°17'0 0.0
2014-Apr-07 20:31N 33°44' W 118°17'0 0.0
2014-Apr-07 19:33N 33°44' W 118°17'0 0.1
2014-Apr-07 14:31N 33°43' W 118°16'0 0.1
2014-Apr-07 13:31N 33°43' W 118°17'0 0.0
2014-Apr-07 12:33N 33°43' W 118°17'0 0.0
2014-Apr-07 10:30N 33°43' W 118°16'0 0.0
2014-Apr-07 07:29N 33°43' W 118°17'0 0.1
2014-Apr-07 06:30N 33°43' W 118°16'0 0.0
2014-Apr-07 05:31N 33°43' W 118°16'0 0.0
2014-Apr-07 04:07N 33°43' W 118°16'  

Dump ship's entire track history

sailing weather and tide predictions

Delta Lindsey — WDF5519 — position and weather